Home > Weather > Oberpullendorf > Past weeks

Flag for Austria Past Weather in Oberpullendorf, Burgenland, Austria — Yesterday and Last 2 Weeks

Now
68 °F

Passing clouds.


Feels Like: 68 °F
Forecast: 62 / 82 °F
Wind: 5 mph from North

Location: Eisenstadt

Current Time: Jun 29, 2016 at 11:52:35 PM

Latest Report: Jun 29, 2016 at 11:00 PM


Visibility: 13 mi

Pressure: 29.94 "Hg

Humidity: 75%

Dew Point: 60 °F

Location of OberpullendorfLocation

Past Weather in Oberpullendorf — Graph

°F

Oberpullendorf Temperature Yesterday

Maximum temperature yesterday: 79 °F (at 5:00 PM)
Minimum temperature yesterday: 61 °F (at 4:00 AM)
Average temperature yesterday: 69 °F

High & Low Weather Summary for the Past Weeks

 TemperatureHumidityPressure
High91 °F (Jun 24, 4:00 PM)94% (Jun 21, 6:00 AM)30.26 "Hg (Jun 21, 6:00 AM)
Low55 °F (Jun 21, 6:00 AM)34% (Jun 23, 5:00 PM)29.47 "Hg (Jun 17, 5:00 AM)
Average70 °F69%29.97 "Hg
* Reported Jun 14 10:00 PM — Jun 29 10:00 PM, Oberpullendorf, Weather by CustomWeather, © 2016

Note: Actual official high and low records may vary slightly from our data, if they occured in-between our weather recording intervals... More about our weather records

Advertising

Oberpullendorf Weather History for the Previous 24 Hours

Scroll right to see more
 ConditionsComfort  
Time TempWeatherWind HumidityBarometerVisibility
10:00 PM
Wed, Jun 29
70 °FMild.5 mph71%29.93 "HgN/A
9:00 PM72 °FMild.3 mph71%29.92 "HgN/A
8:00 PM77 °FPassing clouds.5 mph60%29.91 "Hg12 mi
7:00 PM85 °FPleasantly warm.1 mph39%29.89 "HgN/A
6:00 PM85 °FPleasantly warm.2 mph34%29.89 "HgN/A
2:00 PM83 °FSunny.2 mph40%29.93 "Hg12 mi
1:00 PM82 °FWarm.2 mph41%29.94 "HgN/A
12:00 PM80 °FWarm.3 mph43%29.95 "HgN/A
10:00 AM76 °FMild.2 mph55%29.97 "HgN/A
9:00 AM72 °FMild.3 mph65%29.98 "HgN/A
8:00 AM67 °FSunny.3 mph72%29.98 "Hg12 mi
7:00 AM63 °FSunny.2 mph81%29.99 "Hg12 mi
6:00 AM59 °FSunny.2 mph85%29.99 "Hg12 mi
5:00 AM58 °FSunny.1 mph87%30.00 "Hg9 mi
4:00 AM60 °FClear.3 mph84%29.99 "Hg12 mi
3:00 AM61 °FCool.2 mph81%30.00 "HgN/A
2:00 AM62 °FClear.2 mph80%30.00 "Hg12 mi
1:00 AM61 °FCool.2 mph83%30.01 "HgN/A
12:00 AM64 °FMild.3 mph76%30.00 "HgN/A
11:00 PM
Tue, Jun 28
65 °FClear.2 mph71%30.00 "Hg16 mi
Weather by CustomWeather, © 2016

See weather overviewHow to use our weather pages